Regional Weather Roundup
Issued by NWS Charleston, SC

Home | Current Version | Previous Version | Text Only | Print | Product List | Glossary On
Versions: 1 2 3 4 5 6 7 8 9 10 11 12 13 14 15 16 17 18 19 20 21 22 23 24 25 26 27 28 29 30 31 32 33 34 35 36 37 38 39 40 41 42 43 44 45 46 47 48 49 50
000
ASUS42 KCHS 221627
RWRCHS

REGIONAL WEATHER ROUNDUP
NATIONAL WEATHER SERVICE CHARLESTON SC
1100 AM EST SUN JAN 22 2017

NOTE: "FAIR" INDICATES FEW OR NO CLOUDS BELOW 12,000 FEET WITH NO
SIGNIFICANT WEATHER AND/OR OBSTRUCTIONS TO VISIBILITY.

NOT ALL STATIONS ARE QUALITY CONTROLLED. USE DATA WITH CAUTION...
ESPECIALLY DEWPOINT OBSERVATIONS.

SCZ027-030-031-034>040-042>050-221700-
...SOUTHEAST SOUTH CAROLINA...

CITY           SKY/WX    TMP DP  RH WIND       PRES   REMARKS
N CHARLESTON   LGT RAIN  62  60  93 SE13      29.60F
WATERFRONT PRK   N/A     60  60 100 N5        29.62F
MOUNT PLEASANT LGT RAIN  63  63 100 E5        29.61F
JOHNS ISLAND   LGT RAIN  63  63 100 SE7G14    29.61F
PINOPOLIS      NOT AVBL
MONCKS CORNER  CLOUDY    59  57  94 CALM      29.62R
SUMMERVILLE    FAIR     N/A N/A N/A CALM      29.61F
BEAUFORT MCAS  LGT RAIN  62  61  96 S7        29.63S
BEAUFORT ARPT  LGT RAIN  61  61 100 S9        29.63F
HILTON HEAD IS NOT AVBL
WALTERBORO     CLOUDY    61  61 100 CALM      29.61F
ALLENDALE      CLOUDY    63  61  94 E3        29.58F

...SOUTHERN MIDLANDS AND PEE DEE...

CITY           SKY/WX    TMP DP  RH WIND       PRES   REMARKS
GEORGETOWN     LGT RAIN  61  59  94 NE8       29.63F
KINGSTREE      CLOUDY    59  59 100 SE6       29.62F
ORANGEBURG     CLOUDY    62  59  90 SE9       29.59F
BARNWELL       CLOUDY    63  61  94 E8        29.59F
AIKEN          CLOUDY    61  57  88 SE10      29.61F
MANNING        FAIR      59  55  88 S5        29.62F
COLUMBIA       CLOUDY    63  59  87 SE7       29.60F
SUMTER         CLOUDY    63  58  86 SE9       29.59F
FLORENCE       CLOUDY    62  60  93 S5        29.61S
MYRTLE BEACH   CLOUDY    61  57  88 S10       29.69F FOG
N MYRTLE BEACH CLOUDY    59  59 100 S8        29.65F

$$

GAZ063-065-086>088-099>101-113>116-118-119-134>141-150-221700-
...SOUTHEAST GEORGIA...

CITY           SKY/WX    TMP DP  RH WIND       PRES   REMARKS
SAVANNAH ARPT  LGT RAIN  62  59  90 SE9       29.63F
HUNTER AAF     CLOUDY    61  61 100 S5        29.60S
FORT STEWART   TSTM      61  59  94 S6        29.61F
STATESBORO     PTSUNNY   64  32  30 S5        29.57F
SYLVANIA       CLOUDY   N/A N/A N/A CALM      29.59S
CLAXTON        CLOUDY   N/A N/A N/A SE6       29.58S

...CSRA...CENTRAL AND FAR SOUTHEAST GEORGIA...

CITY           SKY/WX    TMP DP  RH WIND       PRES   REMARKS
THOMSON        CLOUDY    65  62  92 SE10      29.60F
AUGUSTA-BUSH   CLOUDY    64  59  83 SE9       29.59F
AUGUSTA-DANIEL CLOUDY    63  58  83 SE12G17   29.57F
SWAINSBORO     CLOUDY    64  63  94 SE7       29.57F
VIDALIA        CLOUDY    64  64 100 SE7       29.57S
EASTMAN        PTSUNNY   67  67 100 SE3       29.56F
HAZLEHURST     FAIR      64  64 100 S3        29.56S
ALMA           CLOUDY    63  62  97 S8        29.59S THUNDER
WAYCROSS       TSTM      65  65 100 S12       29.57F
JESUP          LGT RAIN  63  61  94 S6        29.60F
BAXLEY         NOT AVBL
BRUNSWICK      TSTM      63  63 100 CALM      29.64F
SAINT SIMONS   LGT RAIN  63  61  93 CALM      29.64F FOG

$$

SCZ027-028-034-036>038-045-046-048>050-GAZ119-141-221700-
...LAKE AND SUPPLEMENTAL COASTAL OBSERVATIONS...

STATION/POSITION TIME  TEMP    WIND        PRES    WAVE   SWELL
                       AIR SEA DIR/SP/G            HT/PER HT/PER/DIR
                 (UTC) (F)     (DEG/KT/KT) (MB)    (FT/S) (FT/S/D)
WINYAH BAY       1530   60     140/  5     1004.0F
LAKE MURRAY      1530   60     150/  8/ 12 1002.4F
ACE BASIN NERRS  1530   60        CALM     1005.0F
FORT PULASKI     1600   61 59  160/  6/  9 1004.2
SAPELO ISLAND    1600   62        CALM     1004.0

$$

ANZ835-935-AMZ111-154-330-350-352-354-370-450-454-472-221700-
...C-MAN AND BUOY OBSERVATIONS...

STATION/POSITION TIME  TEMP    WIND        PRES    WAVE   SWELL
                       AIR SEA DIR/SP/G            HT/PER HT/PER/DIR
                 (UTC) (F)     (DEG/KT/KT) (MB)    (FT/S) (FT/S/D)
BUOY 41004       1550   66 68  280/  8/ 10 1004.4F   4/ 5   3/190/ 5
BUOY 41008       1550   61 60  260/ 12/ 16 1004.5F   4/ 6   3/150/ 6
FOLLY BEACH CMAN 1600   59     140/  5/  6 1004.2F
CAPERS NEARSHORE 1508   59 57   30/  2/  4 1005.8R
FRIPP NEARSHORE  1608   60 59  180/ 12/ 16 1003.8F


STATION/POSITION TIME  TEMP    WIND        PRES    WAVE   SWELL
                       AIR SEA DIR/SP/G            HT/PER HT/PER/DIR
                 (UTC) (F)     (DEG/KT/KT) (MB)    (FT/S) (FT/S/D)
5E ST. MARYS GA  1600      63                N/A     3/ 5
FRYING PAN BUOY  1610   61 68   20/  8/ 12 1003.5
BUOY 41025       1550   64 73  280/ 14/ 17 1004.4F   5/12   3/ 80/12
CAPE LOOKOUT NC  1600   59     190/  6/  6 1004.2F
BUOY 41002       1550   73 71  200/ 17/ 21 1007.7F   7/ 7   3/ 50/13
BUOY 41010       NOT AVBL
ST AUGUSTINE FL  1600   77 65  200/ 20/ 26 1003.7F


$$



USA.gov is the U.S. government's official web portal to all federal, state and local government web resources and services.